Time,TemperatureF,DewpointF,PressureIn,WindDirection,WindDirectionDegrees,WindSpeedMPH,WindSpeedGustMPH,Humidity,HourlyPrecipIn,Conditions,Clouds,dailyrainin,SoftwareType,DateUTC
2013-05-24 00:01:00,65.5,59.5,30.10,SE,135,0.0,0.0,81,0.00,,,0.00,VWS V13.01,2013-05-24 05:01:00,
2013-05-24 00:06:00,65.3,59.3,30.10,SE,135,0.0,0.0,81,0.00,,,0.00,VWS V13.01,2013-05-24 05:06:00,
2013-05-24 00:11:00,65.1,59.1,30.10,SE,135,0.0,0.0,81,0.00,,,0.00,VWS V13.01,2013-05-24 05:11:00,
2013-05-24 00:16:00,64.7,59.1,30.10,SE,135,0.0,0.0,82,0.00,,,0.00,VWS V13.01,2013-05-24 05:16:00,
2013-05-24 00:21:00,64.6,60.6,30.10,SE,135,0.0,0.0,87,0.00,,,0.00,VWS V13.01,2013-05-24 05:21:00,
2013-05-24 00:26:00,64.4,60.4,30.10,SE,135,0.0,0.0,87,0.00,,,0.00,VWS V13.01,2013-05-24 05:26:00,
2013-05-24 00:31:00,64.2,60.3,30.10,SE,135,0.0,0.0,87,0.00,,,0.00,VWS V13.01,2013-05-24 05:31:00,
2013-05-24 00:36:00,64.0,60.7,30.10,SE,135,0.0,0.0,89,0.00,,,0.00,VWS V13.01,2013-05-24 05:36:00,
2013-05-24 00:41:00,63.7,60.7,30.10,SE,135,0.0,0.0,90,0.00,,,0.00,VWS V13.01,2013-05-24 05:41:00,
2013-05-24 00:45:00,63.5,60.5,30.10,SE,135,0.0,0.0,90,0.00,,,0.00,VWS V13.01,2013-05-24 05:45:00,
2013-05-24 00:50:00,63.3,60.3,30.10,SE,135,0.0,0.0,90,0.00,,,0.00,VWS V13.01,2013-05-24 05:50:00,
2013-05-24 00:55:00,63.1,60.1,30.10,SE,135,0.0,0.0,90,0.00,,,0.00,VWS V13.01,2013-05-24 05:55:00,
2013-05-24 01:00:00,63.1,60.1,30.10,SE,135,0.0,0.0,90,0.00,,,0.00,VWS V13.01,2013-05-24 06:00:00,
2013-05-24 01:05:00,62.9,59.7,30.10,SE,135,0.0,0.0,89,0.00,,,0.00,VWS V13.01,2013-05-24 06:05:00,
2013-05-24 01:10:00,62.8,58.2,30.10,SE,135,0.0,0.0,85,0.00,,,0.00,VWS V13.01,2013-05-24 06:10:00,
2013-05-24 01:15:00,62.8,58.2,30.10,SE,135,0.0,0.0,85,0.00,,,0.00,VWS V13.01,2013-05-24 06:15:00,
2013-05-24 01:20:00,62.8,58.5,30.10,SE,135,0.0,0.0,86,0.00,,,0.00,VWS V13.01,2013-05-24 06:20:00,
2013-05-24 01:25:00,62.8,58.5,30.10,SE,135,0.0,0.0,86,0.00,,,0.00,VWS V13.01,2013-05-24 06:25:00,
2013-05-24 01:30:00,62.8,58.8,30.13,SE,135,0.0,0.0,87,0.00,,,0.00,VWS V13.01,2013-05-24 06:30:00,
2013-05-24 01:35:00,62.9,58.0,30.13,NNE,31,2.2,3.1,84,0.00,,,0.00,VWS V13.01,2013-05-24 06:35:00,
2013-05-24 01:40:00,63.3,56.0,30.13,North,10,2.7,5.8,77,0.00,,,0.00,VWS V13.01,2013-05-24 06:40:00,
2013-05-24 01:45:00,63.7,54.9,30.13,East,85,2.7,3.1,73,0.00,,,0.00,VWS V13.01,2013-05-24 06:45:00,
2013-05-24 01:50:00,64.2,54.6,30.13,NE,42,3.6,3.6,71,0.00,,,0.00,VWS V13.01,2013-05-24 06:50:00,
2013-05-24 01:55:00,64.2,54.2,30.13,NE,44,0.0,3.1,70,0.00,,,0.00,VWS V13.01,2013-05-24 06:55:00,
2013-05-24 02:00:00,64.2,53.8,30.13,NNE,31,3.1,3.1,69,0.00,,,0.00,VWS V13.01,2013-05-24 07:00:00,
2013-05-24 02:05:00,64.2,53.8,30.13,ENE,65,3.1,3.1,69,0.00,,,0.00,VWS V13.01,2013-05-24 07:05:00,
2013-05-24 02:10:00,64.2,53.4,30.13,NE,55,2.7,3.1,68,0.00,,,0.00,VWS V13.01,2013-05-24 07:10:00,
2013-05-24 02:15:00,64.2,53.4,30.13,ENE,74,3.6,4.0,68,0.00,,,0.00,VWS V13.01,2013-05-24 07:15:00,
2013-05-24 02:20:00,64.2,53.4,30.13,ENE,71,2.7,4.0,68,0.00,,,0.00,VWS V13.01,2013-05-24 07:20:00,
2013-05-24 02:25:00,64.2,53.4,30.13,NE,40,3.1,3.1,68,0.00,,,0.00,VWS V13.01,2013-05-24 07:25:00,
2013-05-24 02:30:00,64.0,53.7,30.13,NE,40,2.7,2.7,69,0.00,,,0.00,VWS V13.01,2013-05-24 07:30:00,
2013-05-24 02:35:00,63.8,53.5,30.13,NE,46,3.1,3.1,69,0.00,,,0.00,VWS V13.01,2013-05-24 07:35:00,
2013-05-24 02:40:00,63.7,53.3,30.13,NE,40,0.0,0.0,69,0.00,,,0.00,VWS V13.01,2013-05-24 07:40:00,
2013-05-24 02:45:00,63.5,53.5,30.13,NE,54,0.0,2.2,70,0.00,,,0.00,VWS V13.01,2013-05-24 07:45:00,
2013-05-24 02:50:00,63.1,53.2,30.13,NE,41,2.7,4.0,70,0.00,,,0.00,VWS V13.01,2013-05-24 07:50:00,
2013-05-24 02:55:00,63.1,53.2,30.13,NE,42,0.0,0.0,70,0.00,,,0.00,VWS V13.01,2013-05-24 07:55:00,
2013-05-24 03:00:00,62.8,52.8,30.13,NE,52,2.7,2.7,70,0.00,,,0.00,VWS V13.01,2013-05-24 08:00:00,
2013-05-24 03:05:00,62.6,52.7,30.13,ENE,64,2.2,2.7,70,0.00,,,0.00,VWS V13.01,2013-05-24 08:05:00,
2013-05-24 03:10:00,62.4,52.5,30.13,NE,53,0.0,0.0,70,0.00,,,0.00,VWS V13.01,2013-05-24 08:10:00,
2013-05-24 03:15:00,62.4,52.5,30.13,NE,56,2.7,2.7,70,0.00,,,0.00,VWS V13.01,2013-05-24 08:15:00,
2013-05-24 03:20:00,62.2,52.7,30.13,NE,48,0.0,0.0,71,0.00,,,0.00,VWS V13.01,2013-05-24 08:20:00,
2013-05-24 03:25:00,62.0,52.5,30.13,NE,49,2.2,2.7,71,0.00,,,0.00,VWS V13.01,2013-05-24 08:25:00,
2013-05-24 03:30:00,61.9,52.4,30.13,NE,46,0.0,0.0,71,0.00,,,0.00,VWS V13.01,2013-05-24 08:30:00,
2013-05-24 03:35:00,61.5,52.4,30.13,NE,46,0.0,0.0,72,0.00,,,0.00,VWS V13.01,2013-05-24 08:35:00,
2013-05-24 03:40:00,61.3,52.6,30.13,NE,43,2.7,2.7,73,0.00,,,0.00,VWS V13.01,2013-05-24 08:40:00,
2013-05-24 03:45:00,61.1,52.8,30.13,NE,39,2.7,3.1,74,0.00,,,0.00,VWS V13.01,2013-05-24 08:45:00,
2013-05-24 03:50:00,60.8,52.8,30.13,NE,37,2.7,3.6,75,0.00,,,0.00,VWS V13.01,2013-05-24 08:50:00,
2013-05-24 03:55:00,60.6,52.6,30.13,NE,39,0.0,0.0,75,0.00,,,0.00,VWS V13.01,2013-05-24 08:55:00,
2013-05-24 04:00:00,60.4,52.8,30.13,NE,39,0.0,0.0,76,0.00,,,0.00,VWS V13.01,2013-05-24 09:00:00,
2013-05-24 04:05:00,60.2,52.7,30.13,NE,39,0.0,0.0,76,0.00,,,0.00,VWS V13.01,2013-05-24 09:05:00,
2013-05-24 04:10:00,60.2,52.7,30.13,NE,40,2.7,2.7,76,0.00,,,0.00,VWS V13.01,2013-05-24 09:10:00,
2013-05-24 04:15:00,60.1,52.8,30.13,NE,40,2.2,3.1,77,0.00,,,0.00,VWS V13.01,2013-05-24 09:15:00,
2013-05-24 04:20:00,59.9,52.7,30.13,NE,38,2.2,2.7,77,0.00,,,0.00,VWS V13.01,2013-05-24 09:20:00,
2013-05-24 04:25:00,59.9,52.7,30.13,NE,40,0.0,0.0,77,0.00,,,0.00,VWS V13.01,2013-05-24 09:25:00,
2013-05-24 04:30:00,59.7,52.5,30.13,NE,42,0.0,0.0,77,0.00,,,0.00,VWS V13.01,2013-05-24 09:30:00,
2013-05-24 04:35:00,59.7,52.5,30.13,NE,42,0.0,0.0,77,0.00,,,0.00,VWS V13.01,2013-05-24 09:35:00,
2013-05-24 04:40:00,59.5,52.7,30.13,NE,41,0.0,0.0,78,0.00,,,0.00,VWS V13.01,2013-05-24 09:40:00,
2013-05-24 04:45:00,59.5,52.7,30.13,ENE,57,3.6,3.6,78,0.00,,,0.00,VWS V13.01,2013-05-24 09:45:00,
2013-05-24 04:50:00,59.5,52.3,30.13,NE,36,3.1,3.6,77,0.00,,,0.00,VWS V13.01,2013-05-24 09:50:00,
2013-05-24 04:55:00,59.5,52.0,30.13,NE,46,2.7,2.7,76,0.00,,,0.00,VWS V13.01,2013-05-24 09:55:00,
2013-05-24 05:00:00,59.5,52.0,30.16,NE,38,0.0,2.2,76,0.00,,,0.00,VWS V13.01,2013-05-24 10:00:00,
2013-05-24 05:05:00,59.5,52.3,30.16,NNE,31,2.7,2.7,77,0.00,,,0.00,VWS V13.01,2013-05-24 10:05:00,
2013-05-24 05:10:00,59.3,52.1,30.16,NNE,31,2.2,2.2,77,0.00,,,0.00,VWS V13.01,2013-05-24 10:10:00,
2013-05-24 05:15:00,59.3,51.8,30.16,ENE,77,0.0,0.0,76,0.00,,,0.00,VWS V13.01,2013-05-24 10:15:00,
2013-05-24 05:20:00,59.2,52.0,30.16,NE,36,3.1,3.1,77,0.00,,,0.00,VWS V13.01,2013-05-24 10:20:00,
2013-05-24 05:25:00,59.2,52.0,30.16,NE,38,3.6,3.6,77,0.00,,,0.00,VWS V13.01,2013-05-24 10:25:00,
2013-05-24 05:30:00,59.2,52.0,30.16,NE,38,3.6,3.6,77,0.00,,,0.00,VWS V13.01,2013-05-24 10:30:00,
2013-05-24 05:35:00,59.2,52.3,30.16,NE,52,0.0,0.0,78,0.00,,,0.00,VWS V13.01,2013-05-24 10:35:00,
2013-05-24 05:40:00,59.0,52.1,30.16,NE,52,0.0,0.0,78,0.00,,,0.00,VWS V13.01,2013-05-24 10:40:00,
2013-05-24 05:45:00,58.8,52.0,30.19,NE,53,0.0,0.0,78,0.00,,,0.00,VWS V13.01,2013-05-24 10:45:00,
2013-05-24 05:50:00,58.6,52.1,30.19,NE,53,0.0,0.0,79,0.00,,,0.00,VWS V13.01,2013-05-24 10:50:00,
2013-05-24 05:55:00,58.6,52.1,30.19,NE,53,0.0,0.0,79,0.00,,,0.00,VWS V13.01,2013-05-24 10:55:00,
2013-05-24 06:00:00,58.4,52.3,30.19,East,83,0.0,0.0,80,0.00,,,0.00,VWS V13.01,2013-05-24 11:00:00,
2013-05-24 06:05:00,58.4,52.3,30.19,East,81,0.0,0.0,80,0.00,,,0.00,VWS V13.01,2013-05-24 11:05:00,
2013-05-24 06:10:00,58.4,52.3,30.19,ENE,68,0.0,0.0,80,0.00,,,0.00,VWS V13.01,2013-05-24 11:10:00,
2013-05-24 06:15:00,58.4,52.3,30.19,ENE,68,0.0,0.0,80,0.00,,,0.00,VWS V13.01,2013-05-24 11:15:00,
2013-05-24 06:20:00,58.3,52.5,30.19,ENE,64,2.7,3.1,81,0.00,,,0.00,VWS V13.01,2013-05-24 11:20:00,
2013-05-24 06:25:00,58.3,52.5,30.19,NNE,29,0.0,0.0,81,0.00,,,0.00,VWS V13.01,2013-05-24 11:25:00,
2013-05-24 06:30:00,58.3,52.5,30.19,East,86,2.2,3.1,81,0.00,,,0.00,VWS V13.01,2013-05-24 11:30:00,
2013-05-24 06:35:00,58.3,52.8,30.19,East,87,0.0,2.7,82,0.00,,,0.00,VWS V13.01,2013-05-24 11:35:00,
2013-05-24 06:40:00,58.3,52.8,30.19,ESE,110,2.7,4.9,82,0.00,,,0.00,VWS V13.01,2013-05-24 11:40:00,
2013-05-24 06:45:00,58.4,52.6,30.22,ESE,105,3.1,3.1,81,0.00,,,0.00,VWS V13.01,2013-05-24 11:45:00,
2013-05-24 06:49:00,58.6,52.8,30.22,ESE,107,2.7,4.0,81,0.00,,,0.00,VWS V13.01,2013-05-24 11:49:00,
2013-05-24 06:54:00,58.6,52.5,30.22,ESE,112,2.7,3.1,80,0.00,,,0.00,VWS V13.01,2013-05-24 11:54:00,
2013-05-24 06:59:00,58.8,52.7,30.22,ESE,108,3.1,4.9,80,0.00,,,0.00,VWS V13.01,2013-05-24 11:59:00,
2013-05-24 07:04:00,58.8,52.7,30.22,East,87,2.2,4.0,80,0.00,,,0.00,VWS V13.01,2013-05-24 12:04:00,
2013-05-24 07:09:00,59.0,52.5,30.22,East,82,3.1,3.1,79,0.00,,,0.00,VWS V13.01,2013-05-24 12:09:00,
2013-05-24 07:14:00,59.0,52.8,30.22,ENE,73,2.7,3.6,80,0.00,,,0.00,VWS V13.01,2013-05-24 12:14:00,
2013-05-24 07:19:00,59.3,53.5,30.22,ENE,57,2.2,2.7,81,0.00,,,0.00,VWS V13.01,2013-05-24 12:19:00,
2013-05-24 07:24:00,59.3,52.8,30.22,East,79,2.2,4.0,79,0.00,,,0.00,VWS V13.01,2013-05-24 12:24:00,
2013-05-24 07:29:00,59.5,52.7,30.22,East,93,3.1,4.9,78,0.00,,,0.00,VWS V13.01,2013-05-24 12:29:00,
2013-05-24 07:34:00,59.7,52.8,30.22,ENE,77,2.7,4.0,78,0.00,,,0.00,VWS V13.01,2013-05-24 12:34:00,
2013-05-24 07:39:00,59.7,52.8,30.22,East,86,0.0,0.0,78,0.00,,,0.00,VWS V13.01,2013-05-24 12:39:00,
2013-05-24 07:44:00,59.9,52.7,30.22,NNE,33,0.0,0.0,77,0.00,,,0.00,VWS V13.01,2013-05-24 12:44:00,
2013-05-24 07:49:00,60.2,53.4,30.22,NE,44,2.7,3.1,78,0.00,,,0.00,VWS V13.01,2013-05-24 12:49:00,
2013-05-24 07:54:00,61.0,53.3,30.22,ENE,68,2.7,3.1,76,0.00,,,0.00,VWS V13.01,2013-05-24 12:54:00,
2013-05-24 07:59:00,61.5,52.4,30.22,East,82,3.6,4.5,72,0.00,,,0.00,VWS V13.01,2013-05-24 12:59:00,
2013-05-24 08:04:00,61.5,52.4,30.22,East,80,3.6,4.0,72,0.00,,,0.00,VWS V13.01,2013-05-24 13:04:00,
2013-05-24 08:09:00,61.3,51.8,30.22,ESE,122,4.0,8.3,71,0.00,,,0.00,VWS V13.01,2013-05-24 13:09:00,
2013-05-24 08:14:00,61.1,52.4,30.22,ENE,76,2.7,4.0,73,0.00,,,0.00,VWS V13.01,2013-05-24 13:14:00,
2013-05-24 08:19:00,61.5,52.8,30.22,ENE,59,4.9,5.8,73,0.00,,,0.00,VWS V13.01,2013-05-24 13:19:00,
2013-05-24 08:24:00,61.9,52.8,30.22,NNE,20,4.9,5.8,72,0.00,,,0.00,VWS V13.01,2013-05-24 13:24:00,
2013-05-24 08:29:00,62.2,52.3,30.22,East,92,3.1,4.9,70,0.00,,,0.00,VWS V13.01,2013-05-24 13:29:00,
2013-05-24 08:34:00,62.0,52.2,30.22,ENE,58,3.6,3.6,70,0.00,,,0.00,VWS V13.01,2013-05-24 13:34:00,
2013-05-24 08:39:00,62.0,52.5,30.22,NE,56,3.1,4.0,71,0.00,,,0.00,VWS V13.01,2013-05-24 13:39:00,
2013-05-24 08:44:00,62.4,51.7,30.25,East,90,3.1,5.4,68,0.00,,,0.00,VWS V13.01,2013-05-24 13:44:00,
2013-05-24 08:49:00,63.1,52.4,30.25,East,80,3.6,4.5,68,0.00,,,0.00,VWS V13.01,2013-05-24 13:49:00,
2013-05-24 08:54:00,63.7,51.7,30.25,East,97,6.3,6.3,65,0.00,,,0.00,VWS V13.01,2013-05-24 13:54:00,
2013-05-24 08:59:00,63.7,50.8,30.25,East,81,5.8,6.3,63,0.00,,,0.00,VWS V13.01,2013-05-24 13:59:00,
2013-05-24 09:04:00,64.0,51.6,30.25,NE,48,5.8,5.8,64,0.00,,,0.00,VWS V13.01,2013-05-24 14:04:00,
2013-05-24 09:09:00,64.0,51.6,30.25,NNE,32,4.0,7.6,64,0.00,,,0.00,VWS V13.01,2013-05-24 14:09:00,
2013-05-24 09:14:00,64.4,51.5,30.25,East,80,5.4,5.4,63,0.00,,,0.00,VWS V13.01,2013-05-24 14:14:00,
2013-05-24 09:19:00,64.7,50.1,30.25,North,5,7.6,7.6,59,0.00,,,0.00,VWS V13.01,2013-05-24 14:19:00,
2013-05-24 09:24:00,64.9,50.3,30.25,ESE,104,5.8,6.3,59,0.00,,,0.00,VWS V13.01,2013-05-24 14:24:00,
2013-05-24 09:29:00,65.1,49.5,30.25,NE,40,4.0,4.0,57,0.00,,,0.00,VWS V13.01,2013-05-24 14:29:00,
2013-05-24 09:34:00,65.1,49.0,30.25,ESE,119,8.1,9.2,56,0.00,,,0.00,VWS V13.01,2013-05-24 14:34:00,
2013-05-24 09:39:00,65.6,50.0,30.25,NE,43,3.1,3.6,57,0.00,,,0.00,VWS V13.01,2013-05-24 14:39:00,
2013-05-24 09:44:00,65.6,49.0,30.25,SE,128,6.3,6.3,55,0.00,,,0.00,VWS V13.01,2013-05-24 14:44:00,
2013-05-24 09:49:00,65.6,49.0,30.25,ENE,69,3.6,4.9,55,0.00,,,0.00,VWS V13.01,2013-05-24 14:49:00,
2013-05-24 09:54:00,66.0,49.4,30.25,ENE,62,4.9,5.8,55,0.00,,,0.00,VWS V13.01,2013-05-24 14:54:00,
2013-05-24 09:59:00,66.2,49.6,30.25,ENE,73,5.8,5.8,55,0.00,,,0.00,VWS V13.01,2013-05-24 14:59:00,
2013-05-24 10:04:00,66.2,49.1,30.25,East,79,3.1,4.9,54,0.00,,,0.00,VWS V13.01,2013-05-24 15:04:00,
2013-05-24 10:09:00,66.7,49.6,30.25,ENE,60,6.3,6.3,54,0.00,,,0.00,VWS V13.01,2013-05-24 15:09:00,
2013-05-24 10:14:00,66.7,49.1,30.25,East,96,11.4,11.4,53,0.00,,,0.00,VWS V13.01,2013-05-24 15:14:00,
2013-05-24 10:19:00,66.4,49.7,30.25,ENE,76,5.8,7.2,55,0.00,,,0.00,VWS V13.01,2013-05-24 15:19:00,
2013-05-24 10:24:00,66.5,49.4,30.25,ENE,59,7.2,7.2,54,0.00,,,0.00,VWS V13.01,2013-05-24 15:24:00,
2013-05-24 10:29:00,66.9,49.2,30.25,NNE,14,3.1,3.6,53,0.00,,,0.00,VWS V13.01,2013-05-24 15:29:00,
2013-05-24 10:34:00,67.3,49.6,30.25,SE,130,5.4,8.1,53,0.00,,,0.00,VWS V13.01,2013-05-24 15:34:00,
2013-05-24 10:39:00,67.1,49.4,30.25,East,101,8.3,8.3,53,0.00,,,0.00,VWS V13.01,2013-05-24 15:39:00,
2013-05-24 10:44:00,66.9,49.2,30.25,ESE,112,3.1,8.3,53,0.00,,,0.00,VWS V13.01,2013-05-24 15:44:00,
2013-05-24 10:49:00,67.1,49.4,30.25,NNE,26,5.4,6.3,53,0.00,,,0.00,VWS V13.01,2013-05-24 15:49:00,
2013-05-24 10:54:00,67.6,50.9,30.25,ENE,61,5.8,5.8,55,0.00,,,0.00,VWS V13.01,2013-05-24 15:54:00,
2013-05-24 10:59:00,68.3,50.0,30.25,ENE,59,6.3,6.7,52,0.00,,,0.00,VWS V13.01,2013-05-24 15:59:00,
2013-05-24 11:04:00,68.7,50.4,30.25,NE,46,4.0,4.0,52,0.00,,,0.00,VWS V13.01,2013-05-24 16:04:00,
2013-05-24 11:09:00,68.9,51.1,30.25,East,88,4.0,4.0,53,0.00,,,0.00,VWS V13.01,2013-05-24 16:09:00,
2013-05-24 11:14:00,68.3,50.0,30.25,East,90,6.3,13.2,52,0.00,,,0.00,VWS V13.01,2013-05-24 16:14:00,
2013-05-24 11:19:00,68.2,50.4,30.25,SSE,150,6.3,7.6,53,0.00,,,0.00,VWS V13.01,2013-05-24 16:19:00,
2013-05-24 11:24:00,68.5,50.2,30.25,NNE,17,3.1,4.0,52,0.00,,,0.00,VWS V13.01,2013-05-24 16:24:00,
2013-05-24 11:29:00,68.7,50.9,30.25,NE,42,3.6,6.3,53,0.00,,,0.00,VWS V13.01,2013-05-24 16:29:00,
2013-05-24 11:34:00,68.7,50.4,30.25,SE,131,5.4,5.8,52,0.00,,,0.00,VWS V13.01,2013-05-24 16:34:00,
2013-05-24 11:39:00,68.7,50.9,30.25,ENE,71,2.7,4.9,53,0.00,,,0.00,VWS V13.01,2013-05-24 16:39:00,
2013-05-24 11:44:00,69.4,51.0,30.25,NE,50,4.9,8.1,52,0.00,,,0.00,VWS V13.01,2013-05-24 16:44:00,
2013-05-24 11:49:00,69.2,50.9,30.25,ENE,74,4.9,6.3,52,0.00,,,0.00,VWS V13.01,2013-05-24 16:49:00,
2013-05-24 11:54:00,69.4,51.0,30.25,East,91,8.7,11.0,52,0.00,,,0.00,VWS V13.01,2013-05-24 16:54:00,
2013-05-24 11:59:00,69.6,52.2,30.25,East,79,5.8,5.8,54,0.00,,,0.00,VWS V13.01,2013-05-24 16:59:00,
2013-05-24 12:04:00,69.4,51.0,30.25,East,96,8.1,8.1,52,0.00,,,0.00,VWS V13.01,2013-05-24 17:04:00,
2013-05-24 12:09:00,69.1,50.7,30.25,ENE,78,6.3,10.5,52,0.00,,,0.00,VWS V13.01,2013-05-24 17:09:00,
2013-05-24 12:14:00,69.2,51.9,30.25,NE,53,3.6,4.0,54,0.00,,,0.00,VWS V13.01,2013-05-24 17:14:00,
2013-05-24 12:19:00,70.5,52.0,30.25,ENE,73,5.4,5.4,52,0.00,,,0.00,VWS V13.01,2013-05-24 17:19:00,
2013-05-24 12:24:00,69.8,50.9,30.25,NW,323,5.8,8.3,51,0.00,,,0.00,VWS V13.01,2013-05-24 17:24:00,
2013-05-24 12:29:00,70.3,51.9,30.25,ESE,119,5.8,7.6,52,0.00,,,0.00,VWS V13.01,2013-05-24 17:29:00,
2013-05-24 12:33:00,70.7,52.2,30.25,SE,126,5.4,5.4,52,0.00,,,0.00,VWS V13.01,2013-05-24 17:33:00,
2013-05-24 12:38:00,70.7,52.2,30.25,East,98,5.8,5.8,52,0.00,,,0.00,VWS V13.01,2013-05-24 17:38:00,
2013-05-24 12:43:00,70.7,52.2,30.22,SE,132,2.7,5.8,52,0.00,,,0.00,VWS V13.01,2013-05-24 17:43:00,
2013-05-24 12:48:00,71.0,52.0,30.22,NNE,13,7.6,7.6,51,0.00,,,0.00,VWS V13.01,2013-05-24 17:48:00,
2013-05-24 12:53:00,71.0,52.5,30.22,ENE,73,6.3,8.1,52,0.00,,,0.00,VWS V13.01,2013-05-24 17:53:00,
2013-05-24 12:58:00,71.2,52.2,30.22,East,89,5.8,8.7,51,0.00,,,0.00,VWS V13.01,2013-05-24 17:58:00,
2013-05-24 13:03:00,71.4,52.3,30.22,ENE,72,5.4,10.1,51,0.00,,,0.00,VWS V13.01,2013-05-24 18:03:00,
2013-05-24 13:08:00,71.0,52.5,30.22,SE,129,7.6,8.1,52,0.00,,,0.00,VWS V13.01,2013-05-24 18:08:00,
2013-05-24 13:13:00,70.9,51.8,30.22,East,93,11.0,11.0,51,0.00,,,0.00,VWS V13.01,2013-05-24 18:13:00,
2013-05-24 13:18:00,71.0,52.0,30.22,SE,134,6.3,7.6,51,0.00,,,0.00,VWS V13.01,2013-05-24 18:18:00,
2013-05-24 13:23:00,71.4,52.9,30.22,ESE,112,3.6,4.0,52,0.00,,,0.00,VWS V13.01,2013-05-24 18:23:00,
2013-05-24 13:28:00,71.9,52.8,30.22,East,91,5.4,7.6,51,0.00,,,0.00,VWS V13.01,2013-05-24 18:28:00,
2013-05-24 13:33:00,72.1,53.5,30.22,ESE,107,3.6,6.3,52,0.00,,,0.00,VWS V13.01,2013-05-24 18:33:00,
2013-05-24 13:38:00,71.8,52.7,30.22,NNE,21,3.1,5.4,51,0.00,,,0.00,VWS V13.01,2013-05-24 18:38:00,
2013-05-24 13:43:00,72.1,53.0,30.22,ENE,62,5.8,8.1,51,0.00,,,0.00,VWS V13.01,2013-05-24 18:43:00,
2013-05-24 13:48:00,72.3,53.2,30.22,NE,37,2.7,6.7,51,0.00,,,0.00,VWS V13.01,2013-05-24 18:48:00,
2013-05-24 13:53:00,72.7,53.5,30.22,ESE,113,5.8,6.3,51,0.00,,,0.00,VWS V13.01,2013-05-24 18:53:00,
2013-05-24 13:58:00,72.7,53.5,30.22,East,97,5.8,8.3,51,0.00,,,0.00,VWS V13.01,2013-05-24 18:58:00,
2013-05-24 14:03:00,72.5,53.3,30.22,ESE,109,5.4,10.1,51,0.00,,,0.00,VWS V13.01,2013-05-24 19:03:00,
2013-05-24 14:08:00,72.1,53.0,30.22,ENE,58,3.6,3.6,51,0.00,,,0.00,VWS V13.01,2013-05-24 19:08:00,
2013-05-24 14:13:00,72.5,53.3,30.22,ENE,60,4.0,8.1,51,0.00,,,0.00,VWS V13.01,2013-05-24 19:13:00,
2013-05-24 14:18:00,73.0,53.8,30.22,East,79,7.2,9.6,51,0.00,,,0.00,VWS V13.01,2013-05-24 19:18:00,
2013-05-24 14:23:00,73.4,54.2,30.22,NE,41,6.3,6.3,51,0.00,,,0.00,VWS V13.01,2013-05-24 19:23:00,
2013-05-24 14:28:00,73.7,53.4,30.22,ESE,113,6.7,10.5,49,0.00,,,0.00,VWS V13.01,2013-05-24 19:28:00,
2013-05-24 14:33:00,73.4,53.1,30.22,SE,125,5.4,6.3,49,0.00,,,0.00,VWS V13.01,2013-05-24 19:33:00,
2013-05-24 14:38:00,73.2,52.9,30.22,SSE,147,6.3,11.0,49,0.00,,,0.00,VWS V13.01,2013-05-24 19:38:00,
2013-05-24 14:43:00,73.6,54.3,30.22,South,174,3.6,8.1,51,0.00,,,0.00,VWS V13.01,2013-05-24 19:43:00,
2013-05-24 14:48:00,73.9,54.7,30.22,ENE,67,5.4,8.3,51,0.00,,,0.00,VWS V13.01,2013-05-24 19:48:00,
2013-05-24 14:53:00,73.9,53.6,30.22,East,97,8.3,10.1,49,0.00,,,0.00,VWS V13.01,2013-05-24 19:53:00,
2013-05-24 14:58:00,73.7,54.5,30.22,ENE,58,6.7,7.6,51,0.00,,,0.00,VWS V13.01,2013-05-24 19:58:00,
2013-05-24 15:03:00,73.6,53.2,30.22,East,93,4.9,6.7,49,0.00,,,0.00,VWS V13.01,2013-05-24 20:03:00,
2013-05-24 15:08:00,73.7,54.5,30.22,East,87,3.6,6.3,51,0.00,,,0.00,VWS V13.01,2013-05-24 20:08:00,
2013-05-24 15:13:00,73.7,54.5,30.22,ESE,103,8.1,8.1,51,0.00,,,0.00,VWS V13.01,2013-05-24 20:13:00,
2013-05-24 15:18:00,74.1,54.3,30.22,ENE,58,5.8,5.8,50,0.00,,,0.00,VWS V13.01,2013-05-24 20:18:00,
2013-05-24 15:23:00,74.3,55.0,30.22,ESE,119,5.4,5.8,51,0.00,,,0.00,VWS V13.01,2013-05-24 20:23:00,
2013-05-24 15:28:00,73.9,54.1,30.22,ENE,78,8.1,8.1,50,0.00,,,0.00,VWS V13.01,2013-05-24 20:28:00,
2013-05-24 15:33:00,73.9,54.7,30.19,ESE,117,6.7,6.7,51,0.00,,,0.00,VWS V13.01,2013-05-24 20:33:00,
2013-05-24 15:38:00,73.7,53.4,30.19,SE,139,7.6,8.3,49,0.00,,,0.00,VWS V13.01,2013-05-24 20:38:00,
2013-05-24 15:43:00,73.7,54.0,30.19,East,80,5.8,7.6,50,0.00,,,0.00,VWS V13.01,2013-05-24 20:43:00,
2013-05-24 15:48:00,73.9,54.1,30.19,ESE,105,6.3,6.3,50,0.00,,,0.00,VWS V13.01,2013-05-24 20:48:00,
2013-05-24 15:53:00,73.9,54.1,30.19,NNE,27,5.4,6.3,50,0.00,,,0.00,VWS V13.01,2013-05-24 20:53:00,
2013-05-24 15:58:00,73.9,53.6,30.19,ESE,118,8.7,8.7,49,0.00,,,0.00,VWS V13.01,2013-05-24 20:58:00,
2013-05-24 16:03:00,73.7,54.0,30.19,SE,127,4.0,8.1,50,0.00,,,0.00,VWS V13.01,2013-05-24 21:03:00,
2013-05-24 16:08:00,74.1,54.8,30.19,East,82,5.8,5.8,51,0.00,,,0.00,VWS V13.01,2013-05-24 21:08:00,
2013-05-24 16:13:00,74.3,54.5,30.19,ESE,119,2.7,2.7,50,0.00,,,0.00,VWS V13.01,2013-05-24 21:13:00,
2013-05-24 16:18:00,74.5,54.1,30.16,ENE,69,8.3,8.3,49,0.00,,,0.00,VWS V13.01,2013-05-24 21:18:00,
2013-05-24 16:23:00,74.5,54.6,30.16,SE,131,5.8,7.6,50,0.00,,,0.00,VWS V13.01,2013-05-24 21:23:00,
2013-05-24 16:28:00,74.1,54.8,30.16,East,91,4.9,6.3,51,0.00,,,0.00,VWS V13.01,2013-05-24 21:28:00,
2013-05-24 16:33:00,74.1,53.7,30.16,NE,49,3.6,8.1,49,0.00,,,0.00,VWS V13.01,2013-05-24 21:33:00,
2013-05-24 16:38:00,74.1,53.7,30.16,East,98,6.3,8.3,49,0.00,,,0.00,VWS V13.01,2013-05-24 21:38:00,
2013-05-24 16:43:00,74.1,53.7,30.16,ENE,72,5.8,5.8,49,0.00,,,0.00,VWS V13.01,2013-05-24 21:43:00,
2013-05-24 16:48:00,73.9,54.1,30.16,NE,46,3.1,3.1,50,0.00,,,0.00,VWS V13.01,2013-05-24 21:48:00,
2013-05-24 16:53:00,74.1,54.3,30.16,ESE,118,6.3,7.6,50,0.00,,,0.00,VWS V13.01,2013-05-24 21:53:00,
2013-05-24 16:58:00,74.3,54.5,30.16,ESE,109,3.6,5.8,50,0.00,,,0.00,VWS V13.01,2013-05-24 21:58:00,
2013-05-24 17:03:00,74.5,54.6,30.16,SSE,147,7.2,7.6,50,0.00,,,0.00,VWS V13.01,2013-05-24 22:03:00,
2013-05-24 17:08:00,74.1,53.7,30.16,ENE,65,3.6,3.6,49,0.00,,,0.00,VWS V13.01,2013-05-24 22:08:00,
2013-05-24 17:13:00,73.7,53.4,30.16,East,81,5.4,6.3,49,0.00,,,0.00,VWS V13.01,2013-05-24 22:13:00,
2013-05-24 17:18:00,73.9,53.6,30.16,East,91,4.5,5.4,49,0.00,,,0.00,VWS V13.01,2013-05-24 22:18:00,
2013-05-24 17:23:00,73.7,54.0,30.16,ENE,60,2.7,6.3,50,0.00,,,0.00,VWS V13.01,2013-05-24 22:23:00,
2013-05-24 17:28:00,73.6,53.8,30.16,ESE,104,3.6,3.6,50,0.00,,,0.00,VWS V13.01,2013-05-24 22:28:00,
2013-05-24 17:33:00,73.7,54.0,30.16,SE,126,3.6,4.9,50,0.00,,,0.00,VWS V13.01,2013-05-24 22:33:00,
2013-05-24 17:38:00,73.7,54.0,30.16,ESE,113,3.1,7.2,50,0.00,,,0.00,VWS V13.01,2013-05-24 22:38:00,
2013-05-24 17:43:00,73.6,54.3,30.16,ESE,103,4.9,10.1,51,0.00,,,0.00,VWS V13.01,2013-05-24 22:43:00,
2013-05-24 17:48:00,73.7,53.4,30.16,ESE,122,6.3,7.6,49,0.00,,,0.00,VWS V13.01,2013-05-24 22:48:00,
2013-05-24 17:53:00,73.4,53.1,30.16,SSE,154,5.4,5.4,49,0.00,,,0.00,VWS V13.01,2013-05-24 22:53:00,
2013-05-24 17:58:00,73.2,54.0,30.16,East,86,8.1,8.1,51,0.00,,,0.00,VWS V13.01,2013-05-24 22:58:00,
2013-05-24 18:03:00,73.0,54.4,30.16,ESE,103,4.0,4.5,52,0.00,,,0.00,VWS V13.01,2013-05-24 23:03:00,
2013-05-24 18:08:00,72.7,53.5,30.16,East,79,7.6,8.1,51,0.00,,,0.00,VWS V13.01,2013-05-24 23:08:00,
2013-05-24 18:13:00,72.5,53.3,30.16,ESE,110,4.0,6.3,51,0.00,,,0.00,VWS V13.01,2013-05-24 23:13:00,
2013-05-24 18:18:00,72.5,53.3,30.16,East,101,4.9,7.6,51,0.00,,,0.00,VWS V13.01,2013-05-24 23:18:00,
2013-05-24 18:23:00,72.3,53.7,30.16,ENE,76,5.4,5.4,52,0.00,,,0.00,VWS V13.01,2013-05-24 23:23:00,
2013-05-24 18:28:00,72.1,53.0,30.16,ESE,120,10.1,10.1,51,0.00,,,0.00,VWS V13.01,2013-05-24 23:28:00,
2013-05-24 18:32:00,71.9,52.8,30.16,ESE,106,5.8,5.8,51,0.00,,,0.00,VWS V13.01,2013-05-24 23:32:00,
2013-05-24 18:37:00,71.6,52.5,30.16,SE,127,5.8,7.6,51,0.00,,,0.00,VWS V13.01,2013-05-24 23:37:00,
2013-05-24 18:42:00,71.4,52.9,30.16,SE,124,5.4,6.3,52,0.00,,,0.00,VWS V13.01,2013-05-24 23:42:00,
2013-05-24 18:47:00,71.4,52.9,30.16,SE,136,4.0,6.3,52,0.00,,,0.00,VWS V13.01,2013-05-24 23:47:00,
2013-05-24 18:52:00,71.2,52.7,30.16,SE,125,6.3,6.3,52,0.00,,,0.00,VWS V13.01,2013-05-24 23:52:00,
2013-05-24 18:57:00,71.0,52.5,30.16,SE,128,5.4,6.7,52,0.00,,,0.00,VWS V13.01,2013-05-24 23:57:00,
2013-05-24 19:02:00,70.9,52.4,30.16,SE,126,3.6,8.7,52,0.00,,,0.00,VWS V13.01,2013-05-25 00:02:00,
2013-05-24 19:07:00,70.9,52.4,30.16,SE,129,6.3,6.3,52,0.00,,,0.00,VWS V13.01,2013-05-25 00:07:00,
2013-05-24 19:12:00,70.5,52.0,30.16,East,96,5.4,7.2,52,0.00,,,0.00,VWS V13.01,2013-05-25 00:12:00,
2013-05-24 19:17:00,70.3,51.9,30.16,ESE,118,4.0,7.6,52,0.00,,,0.00,VWS V13.01,2013-05-25 00:17:00,
2013-05-24 19:22:00,70.0,51.5,30.16,ESE,105,3.1,3.1,52,0.00,,,0.00,VWS V13.01,2013-05-25 00:22:00,
2013-05-24 19:27:00,69.8,51.4,30.16,East,83,6.3,6.3,52,0.00,,,0.00,VWS V13.01,2013-05-25 00:27:00,
2013-05-24 19:32:00,69.6,51.2,30.16,ENE,59,3.6,6.3,52,0.00,,,0.00,VWS V13.01,2013-05-25 00:32:00,
2013-05-24 19:37:00,69.4,51.6,30.16,ENE,77,7.6,7.6,53,0.00,,,0.00,VWS V13.01,2013-05-25 00:37:00,
2013-05-24 19:42:00,69.2,51.4,30.16,ENE,75,5.8,5.8,53,0.00,,,0.00,VWS V13.01,2013-05-25 00:42:00,
2013-05-24 19:47:00,69.1,51.2,30.16,ESE,103,3.6,6.3,53,0.00,,,0.00,VWS V13.01,2013-05-25 00:47:00,
2013-05-24 19:52:00,68.7,50.9,30.16,East,81,2.2,2.7,53,0.00,,,0.00,VWS V13.01,2013-05-25 00:52:00,
2013-05-24 19:57:00,68.5,50.7,30.16,ESE,105,3.1,3.1,53,0.00,,,0.00,VWS V13.01,2013-05-25 00:57:00,
2013-05-24 20:02:00,68.3,51.1,30.16,SE,130,2.7,3.6,54,0.00,,,0.00,VWS V13.01,2013-05-25 01:02:00,
2013-05-24 20:07:00,68.2,50.4,30.16,ESE,122,4.9,5.4,53,0.00,,,0.00,VWS V13.01,2013-05-25 01:07:00,
2013-05-24 20:12:00,68.0,50.2,30.16,ENE,71,4.9,4.9,53,0.00,,,0.00,VWS V13.01,2013-05-25 01:12:00,
2013-05-24 20:17:00,68.0,50.2,30.16,ESE,103,4.0,4.0,53,0.00,,,0.00,VWS V13.01,2013-05-25 01:17:00,
2013-05-24 20:22:00,67.8,50.1,30.16,East,79,3.6,4.9,53,0.00,,,0.00,VWS V13.01,2013-05-25 01:22:00,
2013-05-24 20:27:00,67.4,50.2,30.16,ENE,62,2.7,2.7,54,0.00,,,0.00,VWS V13.01,2013-05-25 01:27:00,
2013-05-24 20:32:00,67.3,50.1,30.16,East,84,0.0,2.2,54,0.00,,,0.00,VWS V13.01,2013-05-25 01:32:00,
2013-05-24 20:37:00,66.9,49.7,30.16,East,86,0.0,0.0,54,0.00,,,0.00,VWS V13.01,2013-05-25 01:37:00,
2013-05-24 20:42:00,66.7,49.6,30.16,NE,46,2.7,5.8,54,0.00,,,0.00,VWS V13.01,2013-05-25 01:42:00,
2013-05-24 20:47:00,66.5,49.4,30.16,ESE,120,0.0,2.7,54,0.00,,,0.00,VWS V13.01,2013-05-25 01:47:00,
2013-05-24 20:52:00,66.4,49.2,30.16,East,95,0.0,0.0,54,0.00,,,0.00,VWS V13.01,2013-05-25 01:52:00,
2013-05-24 20:57:00,66.2,49.1,30.16,ENE,63,2.2,2.7,54,0.00,,,0.00,VWS V13.01,2013-05-25 01:57:00,
2013-05-24 21:02:00,65.8,49.2,30.16,NE,46,2.7,3.1,55,0.00,,,0.00,VWS V13.01,2013-05-25 02:02:00,
2013-05-24 21:07:00,65.8,49.2,30.16,NE,52,0.0,2.7,55,0.00,,,0.00,VWS V13.01,2013-05-25 02:07:00,
2013-05-24 21:12:00,65.6,49.0,30.16,NE,42,2.7,2.7,55,0.00,,,0.00,VWS V13.01,2013-05-25 02:12:00,
2013-05-24 21:17:00,65.3,48.7,30.16,ENE,63,2.7,3.6,55,0.00,,,0.00,VWS V13.01,2013-05-25 02:17:00,
2013-05-24 21:22:00,65.1,49.0,30.16,NE,39,2.2,2.7,56,0.00,,,0.00,VWS V13.01,2013-05-25 02:22:00,
2013-05-24 21:27:00,65.1,49.0,30.16,NE,38,0.0,0.0,56,0.00,,,0.00,VWS V13.01,2013-05-25 02:27:00,
2013-05-24 21:32:00,64.7,48.7,30.19,NE,44,0.0,0.0,56,0.00,,,0.00,VWS V13.01,2013-05-25 02:32:00,
2013-05-24 21:37:00,64.6,48.5,30.19,NE,51,0.0,2.7,56,0.00,,,0.00,VWS V13.01,2013-05-25 02:37:00,
2013-05-24 21:42:00,64.4,48.8,30.19,NE,51,0.0,0.0,57,0.00,,,0.00,VWS V13.01,2013-05-25 02:42:00,
2013-05-24 21:47:00,64.2,48.2,30.19,ENE,72,2.2,3.1,56,0.00,,,0.00,VWS V13.01,2013-05-25 02:47:00,
2013-05-24 21:52:00,64.0,48.5,30.19,NE,43,0.0,0.0,57,0.00,,,0.00,VWS V13.01,2013-05-25 02:52:00,
2013-05-24 21:57:00,63.8,48.8,30.19,NE,43,0.0,0.0,58,0.00,,,0.00,VWS V13.01,2013-05-25 02:57:00,
2013-05-24 22:02:00,63.7,48.6,30.19,NE,43,0.0,0.0,58,0.00,,,0.00,VWS V13.01,2013-05-25 03:02:00,
2013-05-24 22:07:00,63.3,48.7,30.19,NE,43,0.0,0.0,59,0.00,,,0.00,VWS V13.01,2013-05-25 03:07:00,
2013-05-24 22:12:00,63.1,48.6,30.19,NE,43,0.0,0.0,59,0.00,,,0.00,VWS V13.01,2013-05-25 03:12:00,
2013-05-24 22:17:00,62.8,48.2,30.19,NE,43,0.0,0.0,59,0.00,,,0.00,VWS V13.01,2013-05-25 03:17:00,
2013-05-24 22:22:00,62.8,48.2,30.19,NE,45,0.0,0.0,59,0.00,,,0.00,VWS V13.01,2013-05-25 03:22:00,
2013-05-24 22:27:00,62.8,48.7,30.19,NE,37,0.0,0.0,60,0.00,,,0.00,VWS V13.01,2013-05-25 03:27:00,
2013-05-24 22:32:00,62.8,48.7,30.19,NNE,17,0.0,0.0,60,0.00,,,0.00,VWS V13.01,2013-05-25 03:32:00,
2013-05-24 22:37:00,62.6,49.0,30.19,NNE,26,0.0,0.0,61,0.00,,,0.00,VWS V13.01,2013-05-25 03:37:00,
2013-05-24 22:42:00,62.4,48.8,30.19,NNE,33,0.0,0.0,61,0.00,,,0.00,VWS V13.01,2013-05-25 03:42:00,
2013-05-24 22:47:00,62.2,48.6,30.19,NNE,29,0.0,0.0,61,0.00,,,0.00,VWS V13.01,2013-05-25 03:47:00,
2013-05-24 22:52:00,62.0,48.9,30.19,NNE,26,0.0,0.0,62,0.00,,,0.00,VWS V13.01,2013-05-25 03:52:00,
2013-05-24 22:57:00,61.9,48.7,30.19,NNE,26,0.0,0.0,62,0.00,,,0.00,VWS V13.01,2013-05-25 03:57:00,
2013-05-24 23:01:00,61.7,48.5,30.19,NNE,26,0.0,0.0,62,0.00,,,0.00,VWS V13.01,2013-05-25 04:01:00,
2013-05-24 23:06:00,61.5,48.4,30.19,NNE,26,0.0,0.0,62,0.00,,,0.00,VWS V13.01,2013-05-25 04:06:00,
2013-05-24 23:11:00,61.3,48.2,30.19,NNE,26,0.0,0.0,62,0.00,,,0.00,VWS V13.01,2013-05-25 04:11:00,
2013-05-24 23:16:00,61.3,48.6,30.19,NNE,24,0.0,0.0,63,0.00,,,0.00,VWS V13.01,2013-05-25 04:16:00,
2013-05-24 23:21:00,61.1,48.0,30.19,NNE,16,0.0,0.0,62,0.00,,,0.00,VWS V13.01,2013-05-25 04:21:00,
2013-05-24 23:26:00,61.1,48.9,30.19,NNE,25,0.0,0.0,64,0.00,,,0.00,VWS V13.01,2013-05-25 04:26:00,
2013-05-24 23:31:00,61.0,48.3,30.19,NNE,28,0.0,0.0,63,0.00,,,0.00,VWS V13.01,2013-05-25 04:31:00,
2013-05-24 23:36:00,60.8,48.5,30.19,NNE,31,0.0,0.0,64,0.00,,,0.00,VWS V13.01,2013-05-25 04:36:00,
2013-05-24 23:41:00,60.4,48.6,30.19,NE,53,0.0,0.0,65,0.00,,,0.00,VWS V13.01,2013-05-25 04:41:00,
2013-05-24 23:46:00,60.2,48.4,30.19,NE,53,0.0,0.0,65,0.00,,,0.00,VWS V13.01,2013-05-25 04:46:00,
2013-05-24 23:51:00,60.1,48.3,30.19,NE,53,0.0,0.0,65,0.00,,,0.00,VWS V13.01,2013-05-25 04:51:00,
2013-05-24 23:56:00,59.9,48.1,30.19,NE,53,0.0,0.0,65,0.00,,,0.00,VWS V13.01,2013-05-25 04:56:00,